www.pogodaiklimat.ru

Погода и климат >> Архив погоды >> Россия >> Приморский край >> Преображение


АРХИВ ПОГОДЫ в Преображении

Время (UTC), дата Ветер
(напр.,м/с)
 
Видим.   Явления Облачность Т
(С)
Тd
(С)
f
(%)
Тe
(С)
Тes
(С)
Комфортность P
(гПа)
Po
(гПа)
Тmin
(С)
Tmax
(С)
R
(мм)
R24
(мм)
S
(см)
21 18.08 штиль 0 50 км 6/6 600 м
[Sc]
+16.2 +15.8 97 +16 +16 1012.0 1007.1 +15.7
00 19.08 ЮВ 2 50 км 9/9 600 м
[Sc]
+17.9 +16.1 89 +18 +19 1012.9 1007.9
03 19.08 ЮВ 4 50 км 9/5 600 м
[Sc Ac trans]
+18.5 +16.1 86 +19 +22 1013.3 1008.4
06 19.08 ЮВ 4 50 км 8/0
[Ac trans Cs]
+19.2 +16.3 83 +21 +25 комфорт 1012.5 1007.5
09 19.08 СВ 3 50 км 9/9 600 м
[Sc]
+19.1 +16.7 86 +21 +21 комфорт 1012.7 1007.7 +19.8
12 19.08 СВ 1 50 км 6/6 600 м
[Sc]
+18.4 +16.6 89 +20 +20 1013.8 1008.9
15 19.08 штиль 0 50 км 8/0
[Ac trans]
+17.1 +16.5 96 +17 +17 1013.7 1008.8
18 19.08 В 1 50 км 8/0
[Ac trans Cs]
+16.7 +16.2 97 +18 +18 1013.6 1008.7
21 19.08 штиль 0 50 км 10/0
[Ac As Cs]
+16.3 +15.9 97 +16 +16 1013.5 1008.6 +16.0
00 20.08 Ю 1 50 км 10/3 600 м
[St As op]
+18.1 +16.6 91 +19 +21 1013.6 1008.6
03 20.08 ЮВ 2 50 км 10/3 600 м
[Sc As trans]
+18.8 +16.0 84 +20 +25 1013.5 1008.6
06 20.08 Ю 2 50 км 10/3 600 м
[Sc As op]
+18.4 +16.1 86 +20 +21 1012.4 1007.5
09 20.08 штиль 0 50 км 10/3 300 м
[Sc Ac und]
+17.4 +16.5 94 +17 +17 1012.6 1007.7 +19.8
12 20.08 штиль 0 50 км 10/3 300 м
[St Ac trans Cs]
+16.6 +16.2 97 +16 +16 1013.2 1008.2
15 20.08 В 1 50 км 10/10 300 м
[St]
+16.3 +16.0 98 +17 +17 1013.4 1008.5
18 20.08 СВ 2 50 км 10/6 300 м
[St Ac und]
+16.7 +15.2 91 +17 +17 1012.6 1007.6
21 20.08 В 1 50 км 10/10 300 м
[St]
+16.0 +15.6 97 +17 +17 1013.3 1008.3 +16.0
00 21.08 В 2 50 км 10/10 300 м
[St]
+17.6 +15.8 89 +18 +18 1013.6 1008.6
03 21.08 В 2 50 км 10/10 300 м
[Sc]
+18.8 +16.1 84 +20 +20 1011.8 1006.8
06 21.08 В 2 20 км слаб. ливневой дождь 10/10 300 м
[Cb cap]
+17.9 +16.4 91 +18 +18 1011.4 1006.5
09 21.08 В 2 50 км в посл. час ливневой дождь 10/10 600 м
[Cb cap]
+17.1 +16.3 95 +17 +17 1010.3 1005.4 +19.3 0.3
12 21.08 СВ 1 50 км {ливн. осадки} 10/10 600 м
[Sc]
+17.0 +16.4 96 +18 +18 1010.8 1005.8
15 21.08 С 1 10 км слаб. ливневой дождь 10/10 300 м
[Cb cap]
+17.1 +16.8 98 +18 +18 1010.1 1005.1
18 21.08 В 1 4000 м ливневой дождь 10/10 300 м
[Cb cap]
+16.9 +16.8 99 +18 +18 1009.1 1004.2
21 21.08 В 1 20 км слаб. ливневой дождь {гроза} 10/10 200 м
[Cb cap]
+17.0 +16.8 99 +18 +18 1009.2 1004.3 +16.7 16
00 22.08 В 3 50 км {гроза, ливн. осадки} 10/10 600 м
[Sc]
+17.0 +16.3 96 +17 +17 1008.8 1003.9
03 22.08 В 3 50 км {ливн. осадки} 10/10 600 м
[Sc]
+16.8 +15.8 94 +17 +17 1008.5 1003.6
06 22.08 В 5
{11}
50 км {ливн. осадки} 10/10 600 м
[Sc]
+17.4 +15.4 88 +17 +17 1007.4 1002.5
09 22.08 В 3 50 км {ливн. осадки} 9/9 600 м
[Sc]
+17.7 +16.1 90 +18 +18 1006.0 1001.1 +18.2 4
12 22.08 В 1 50 км {ливн. осадки} 10/10 600 м
[Sc]
+16.9 +16.1 95 +18 +18 1005.8 1000.9
15 22.08 В 2 50 км 10/10 600 м
[Sc]
+16.7 +16.3 97 +17 +17 1005.9 1000.9
18 22.08 штиль 0 10 км слаб. ливневой дождь 10/10 300 м
[Cb cap]
+16.3 +16.1 99 +16 +16 1005.3 1000.4
21 22.08 В 1 50 км в посл. час ливневой дождь 8/8 600 м
[Cb cap]
+16.0 +15.9 99 +17 +17 1005.3 1000.3 +16.0 36
00 23.08 ЮВ 2 50 км {ливн. осадки} 3/1 300 м
[St Cc]
+19.1 +17.3 89 +21 +29 комфорт 1004.9 1000.0
03 23.08 ЮВ 2 50 км 10/9 600 м
[Sc Ac und]
+18.4 +16.2 87 +20 +20 1005.6 1000.7
06 23.08 ЮЗ 1 20 км слаб. ливневой дождь 10/10 300 м
[Cb cap]
+17.7 +16.8 94 +19 +19 1005.6 1000.7
09 23.08 Ю 1 50 км {ливн. осадки} 10/10 600 м
[Sc]
+16.8 +15.8 94 +18 +18 1006.2 1001.2 +20.0 2
12 23.08 штиль 0 10 км слаб. ливневой дождь 10/10 200 м
[Cb cap]
+16.0 +15.8 99 +16 +16 1008.4 1003.4
15 23.08 В 2 10 км слаб. ливневой дождь {морось} 10/10 300 м
[Cb cap]
+15.5 +15.0 97 +15 +15 1008.6 1003.6
18 23.08 В 2 10 км слаб. ливневой дождь {морось} 10/10 300 м
[Cb cap]
+15.0 +14.7 98 +15 +15 1008.9 1003.9
21 23.08 СВ 2 50 км {ливн. осадки} 9/9 600 м
[Sc Ac trans]
+14.8 +13.7 93 +14 +14 1009.7 1004.8 +14.8 5
00 24.08 В 2 50 км {ливн. осадки} 9/5 600 м
[Sc diur, vesp Ac trans]
+16.2 +13.8 86 +16 +18 1010.9 1005.9 +14.7
03 24.08 В 4 50 км 10/3 600 м
[Cu med, cong Ac und]
+16.5 +12.6 78 +16 +18 1010.9 1005.9
06 24.08 ЮВ 3 50 км {ливн. осадки} 10/10 600 м
[Sc]
+16.2 +13.0 81 +16 +16 1010.1 1005.1
09 24.08 ЮВ 1 50 км 9/9 600 м
[Sc]
+15.3 +13.1 87 +16 +16 1011.0 1006.1 +18.0 0.5
12 24.08 штиль 0 50 км 10/10 600 м
[Sc]
+14.9 +13.8 93 +15 +15 1012.1 1007.1
15 24.08 штиль 0 50 км 10/10 600 м
[Sc]
+14.3 +13.9 97 +14 +14 1012.0 1007.0
18 24.08 С 2 50 км 10/10 600 м
[Sc]
+14.2 +13.7 97 +14 +14 1011.9 1006.9
21 24.08 С 1 50 км 10/10 600 м
[Sc]
+14.4 +13.8 96 +15 +15 1012.5 1007.5 +14.1
00 25.08 штиль 0 50 км 10/10 600 м
[Sc]
+15.4 +13.5 88 +15 +15 1013.5 1008.5
03 25.08 Ю 1 50 км 10/10 300 м
[St]
+16.0 +14.4 90 +17 +17 1013.5 1008.5
06 25.08 Ю 1 50 км 10/5 600 м
[Sc Ac und]
+17.5 +14.6 83 +19 +20 1012.6 1007.6
09 25.08 Ю 1 50 км 10/0
[Ac und]
+16.1 +14.6 91 +17 +17 1012.7 1007.8 +18.0
12 25.08 штиль 0 50 км 10/10 600 м
[Sc]
+15.8 +15.5 98 +16 +16 1013.7 1008.7
15 25.08 СВ 1 50 км 9/9 600 м
[Sc]
+14.7 +14.6 99 +15 +15 1013.1 1008.1
18 25.08 С 1 50 км 10/1 300 м
[St Ci fib]
+13.9 +13.8 99 +14 +14 1012.9 1007.9

 

Местоположение метеостанции Преображение (Приморский край, Россия): широта 42.90 долгота 133.90 высота над уровнем моря 43 м.

В архиве по умолчанию представлена погода в Преображении за последнюю неделю. Архивные данные за месяц целиком и за предыдущие месяцы, начиная с января 2011 года, Вы можете получить, выбрав интересующий диапазон дат из раскрывающегося списка и нажав кнопку "Ввод!".


*Определитесь, кто Вы:
робот инопланетянин человек

Внимание! Время в таблицах - всемирное. Для получения местного времени необходимо прибавить поправку, которая равна 10 ч.

Смотрите также архив погоды в соседних городах и на ближайших метеорологических станциях:

Погода в Лазо (Приморский край, Россия) (56 км)
Погода в Лучегорске (Приморский край, Россия) (75 км)
Погода в Партизанске (Приморский край, Россия) (78 км)
Погода в Находке (Приморский край, Россия) (90 км)
Погода в Многоудобном (Приморский край, Россия) (132 км)
Погода в Чугуевке (Приморский край, Россия) (139 км)
Погода в Анучино (Приморский край, Россия) (139 км)
Погода в Ольге (Приморский край, Россия) (148 км)
Погода в Дальнегорске (Приморский край, Россия) (153 км)
Погода на Мысе Назимова (Приморский край, Россия) (164 км)

Пояснения к столбцам:

Ветер - указаны скорость ветра в м/с - средняя за 10 мин, порывы в срок и между сроками (в фигурных скобках) и направление, откуда дует ветер: С - северный, СВ - северо-восточный, В - восточный, ЮВ - юго-восточный, Ю - южный, ЮЗ - юго-западный, З - западный, СЗ - северо-западный.
Видимость - горизонтальная дальность видимости в метрах или километрах. При видимости от 1 до 10 км при отсутствии осадков обычно наблюдается дымка, при ухудшении видимости до 1 км и менее - туман. В сухую погоду видимость может ухудшаться дымом, пылью или мглою.
Явления - указаны атмосферные явления, наблюдавшиеся в срок или в последний час перед сроком; фигурными скобками обозначены явления, наблюдавшиеся между сроками (за 1-3 часа до срока); квадратными скобками обозначены град или гололедные отложения с указанием их диаметра в мм.
Облачность - указаны через наклонную черту общая и нижняя облачность в баллах и высота нижней границы облаков в метрах; квадратными скобками обозначены формы облаков: Ci - перистые, Cs - перисто-слоистые, Cc - перисто-кучевые, Ac - высококучевые, As - высокослоистые, Sc - слоисто-кучевые, Ns - слоисто-дождевые, Cu - кучевые, Cb - кучево-дождевые. Подробнее классификацию облаков см. в Атласе облаков (PDF).
T - Температура воздуха - температура, измеренная на высоте 2 м над землей.
Td - Температура точки росы - температура, при понижении до которой содержащийся в воздухе водяной пар достигнет насыщения.
f - Относительная влажность воздуха - влажноcть воздуха, измеренная на высоте 2 м над землей.
Te - Эффективная температура - температура, которую ощущает одетый по сезону человек в тени. Характеристика душности погоды. При расчете учитывается влияние влажности воздуха и скорости ветра на теплоощущения человека.
Tes - Эффективная температура на солнце - температура, которую ощущает человек, с поправкой на солнечный нагрев. Характеристика знойности погоды. Зависит от высоты солнца над горизонтом, облачности и скорости ветра. Ночью, в пасмурную погоду, а также при ветре 12 м/с и более поправка равна нулю.
P - Атмосферное давление - приведенное к уровню моря атмосферное давление.
Po - Атмосферное давление - измеренное на уровне метеостанции атмосферное давление.
Tmin - Минимальная температура - минимум температуры воздуха на высоте 2 м над землей.
Tmax - Максимальная температура - максимум температуры воздуха на высоте 2 м над землей.
R - Количество осадков - Количество выпавших осадков за период времени, мм. При наведении курсора мыши на число - период времени, за который выпало указанное количество осадков.
R24 - Количество осадков - Количество выпавших осадков за 24 часа, мм.
S - Снежный покров - Высота снежного покрова, см. При наведении курсора мыши на число - состояние снежного покрова и степень покрытия местности в баллах.